Location: Canazei
(46.4667°N, 11.7667°E)
Time: 04:12:21
(UTC+00:00)

USA 308 - Pass Details

Date: 21 April 2021
Orbit: 568 x 576 km, 54.0° (Epoch: 07 May)

Event Time Altitude Azimuth Distance (km) Brightness Sun altitude
Rises 03:24:20 0° 301° (WNW) 2,791 6.1 -8.9°
Reaches altitude 10° 03:26:38 10° 306° (NW) 1,890 5.3 -8.5°
Maximum altitude 03:30:52 54° 25° (NNE) 707 3.7 -7.9°
Drops below altitude 10° 03:35:04 10° 103° (ESE) 1,882 6.4 -7.2°
Sets 03:37:21 0° 108° (ESE) 2,777 7.2 -6.9°
